Flag for Australia Weather past 2 weeks in Rockhampton, Queensland, Australia

Now
73 °F

Sunny.


Feels Like: 77 °F
Forecast: 58 / 79 °F
Wind: 9 mph from North

Location: Rockhampton Airport

Current Time: Oct 1, 2014 at 10:37:58 AM

Latest Report: Oct 1, 2014 at 9:30 AM


Visibility: 10 mi

Pressure: 30.09 "Hg

Humidity: 50%

Dew point: 54 °F

Location of RockhamptonLocation

Historic Weather in Rockhampton — Graph

°F

Rockhampton temperature yesterday

Maximum temperature yesterday: 81 °F (at 12:00 PM)
Minimum temperature yesterday: 57 °F (at 4:00 AM)
Average temperature yesterday: 68 °F

Past Weeks' High & Low Weather Summary

 TemperatureHumidityPressure
High91 °F (Sep 17, 2:30 PM)100% (Sep 17, 3:03 AM)30.24 "Hg (Sep 17, 3:03 AM)
Low54 °F (Sep 19, 1:00 AM)11% (Sep 17, 4:30 PM)29.86 "Hg (Sep 17, 3:30 PM)
Average69 °F70%30.07 "Hg
* Reported Sep 16 9:00 AM — Oct 1 9:00 AM, Rockhampton, Weather by CustomWeather, © 2014

Note: Actual official high and low records may vary slightly from our data, if they occured in-between our weather recording intervals... More about our weather records

Advertising

Rockhampton weather history for previous 24 hours

 ConditionsComfort  
Time TempWeatherWind HumidityBarometerVisibility
9:00 AM
Oct 1
73 °FSunny.7 mph50%30.09 "Hg10 mi
8:30 AM70 °FSunny.5 mph64%30.09 "Hg10 mi
8:00 AM68 °FSunny.1 mph73%30.12 "Hg10 mi
7:30 AM63 °FSunny.No wind88%30.12 "Hg10 mi
7:00 AM61 °FSunny.2 mph94%30.09 "Hg10 mi
6:30 AM57 °FSunny.2 mph100%30.09 "Hg10 mi
6:00 AM57 °FFog.No wind94%30.09 "HgN/A
5:30 AM57 °FSunny.No wind94%30.09 "HgN/A
5:00 AM57 °FSunny.No wind94%30.09 "HgN/A
4:30 AM57 °FClear.No wind94%30.07 "HgN/A
4:00 AM59 °FClear.No wind94%30.07 "HgN/A
3:30 AM57 °FClear.No wind100%30.07 "HgN/A
3:00 AM59 °FClear.No wind94%30.07 "HgN/A
2:30 AM59 °FClear.No wind94%30.07 "HgN/A
2:00 AM59 °FClear.No wind94%30.09 "HgN/A
1:30 AM59 °FClear.No wind94%30.09 "HgN/A
1:00 AM59 °FClear.No wind94%30.09 "HgN/A
12:30 AM61 °FClear.No wind88%30.09 "HgN/A
12:00 AM61 °FClear.No wind94%30.09 "HgN/A
11:30 PM
Sep 30
61 °FClear.1 mph94%30.09 "HgN/A
11:00 PM63 °FClear.1 mph83%30.09 "HgN/A
10:30 PM64 °FClear.1 mph78%30.09 "HgN/A
10:00 PM64 °FClear.No wind78%30.09 "HgN/A
9:30 PM66 °FClear.1 mph73%30.09 "HgN/A
9:00 PM66 °FClear.1 mph73%30.09 "HgN/A
8:30 PM66 °FClear.2 mph73%30.09 "HgN/A
8:00 PM68 °FClear.5 mph69%30.09 "HgN/A
7:30 PM68 °FClear.6 mph69%30.07 "HgN/A
7:00 PM70 °FClear.7 mph60%30.07 "HgN/A
6:30 PM70 °FClear.9 mph60%30.07 "HgN/A
6:00 PM73 °FClear.8 mph47%30.04 "HgN/A
5:30 PM75 °FClear.8 mph44%30.04 "HgN/A
5:00 PM77 °FClear.7 mph44%30.04 "Hg10 mi
4:30 PM79 °FSunny.8 mph42%30.01 "Hg10 mi
4:00 PM79 °FSunny.7 mph42%30.01 "Hg10 mi
3:30 PM79 °FSunny.8 mph39%30.01 "Hg10 mi
3:00 PM79 °FSunny.10 mph37%30.01 "Hg10 mi
2:30 PM81 °FSunny.10 mph37%30.04 "Hg10 mi
2:00 PM81 °FSunny.10 mph39%30.04 "Hg10 mi
1:30 PM81 °FSunny.10 mph39%30.04 "Hg10 mi
1:00 PM81 °FSunny.5 mph37%30.07 "Hg10 mi
12:30 PM79 °FSunny.7 mph45%30.07 "Hg10 mi
12:00 PM81 °FSunny.7 mph45%30.09 "Hg10 mi
11:30 AM79 °FPassing clouds.6 mph48%30.09 "HgN/A
11:00 AM77 °FPassing clouds.5 mph51%30.12 "HgN/A
10:30 AM75 °FPassing clouds.5 mph54%30.15 "HgN/A
10:00 AM75 °FPassing clouds.6 mph57%30.15 "HgN/A
Weather by CustomWeather, © 2014

See weather overviewHow to use our weather pages